STARLINK-11272, 60723

Orbit data source: Space-Track

STARLINK-11272, 60723 is a payload satellite owned by SpaceX/Seattle (US) in LEO that was launched on Wed, 28 Aug 2024 UTC via an FALCON 9 launch vehicle from the Air Force Eastern Test Range (AFETR). Payload-class satellites include a variety of spacecraft equipped with specific instruments for various scientific and technological missions. These include communications satellites like Starlink; space stations such as the ISS; scientific satellites like the Hubble; Earth observation satellites from companies like Planet Labs, Umbra, and HawkEye 360; GPS; miniature CubeSats for education and research; and military/defense satellites.

Loading next visibility...
Identifier
60723, 2024-152D
Orbit
LEO
Country
Flag of USUS
Related business
Manufacturer
SpaceX/Seattle
Mission
Operational Commercial Communications
Bus & Motor
STARLINK V2M, Unknown motor
Mass
730 kg wet, ~700 kg dry
Launch date (UTC)
2024-08-28 (1 year ago)
Launch vehicle
FALCON 9
Launch site
Air Force Eastern Test Range (AFETR)
Object type
Payload
Rocket body
Debris
Shape & HBR
Box + 2 Pan, 14.5 m
Radar Cross Section
36.964 m², Large (>1 m²)

Expand to show TLE details & history
Last TLE update: 22 hours ago

TLE from 22 hours ago
0 STARLINK-11272
1 60723U 24152D   25242.55307660  .00001028  00000-0  13338-4 0  9992
2 60723  53.1592 338.5853 0001125  79.0181 281.0963 15.69715870 58815
Epoch: 2025-08-30T13:16Z
TLE epoch observation values (Epoch: 2025-08-30T13:16:25.818Z)
Latitude
-0.00004°
Longitude
160.49197°
Altitude
360.479 km
Speed
7.694 km/s
True Right ascension
22h 34m 20s
True Declination
0° 00' 00"
Sunlit
Object was in full shadow at epoch
Visualization orbit readout
Latitude
Unknown
Longitude
Unknown
Altitude
Unknown
Speed
Unknown
Apparent Right ascension
Unknown
Apparent Declination
Unknown
Sunlit
N/A
Visualization observer readout
Local Sidereal Time
03:00:51
Azimuth
Unknown
Elevation
Unknown
Doppler factor
Unknown
Orbital elements
Apogee altitude
360.729 km
Perigee altitude
359.213 km
Semi-major axis
6,738.108 km
Eccentricity
0.00011
Inclination
53.1592°
RAAN
338.5853°
Arg. of periapsis
79.0181°
True anomaly
281.08365°
Mean anomaly
281.0963°
Eccentric anomaly
281.08997°
Mean motion
3.92407 °/min
Orbital period
91.74 mins
BSTAR
0.000013338
Loading maneuver chart data...
Computing Atmospheric mass density...
Loading historical data...
Loading historical data...
Loading historical data...
Loading historical data...
Loading historical data...
Loading historical data...
Loading historical data...

Documentation

Showing up to 5 results
|